Wind_Speed
13 14 15 15 15 16 17 18 19 20 20 21 20 20 22 22 22 22 23 23 23 23 24 24 24 24 25 25 26 26 26 26 26 26 27 28 29 30 31 31 32 33 32
13 13 14 14 15 15 16 18 18 18 19 19 18 19 20 21 22 23 23 23 23 24 24 24 25 25 26 26 26 26 26 27 27 27 27 27 28 29 30 31 32 33 33
12 13 14 13 14 14 15 17 17 17 17 18 18 19 20 21 22 23 22 22 23 23 24 24 25 25 26 27 27 27 27 27 26 26 26 27 27 28 29 30 31 32 32
13 13 13 13 14 15 15 16 16 16 16 17 17 18 19 21 22 21 22 22 22 23 23 24 24 25 26 26 27 27 27 27 27 26 26 27 27 27 28 29 29 30 31
13 13 13 13 14 15 15 16 15 15 16 16 17 18 19 21 21 21 21 21 21 22 23 24 24 25 25 26 26 27 27 27 26 26 26 26 26 27 28 28 28 29 30
13 13 14 13 14 15 15 15 15 15 15 16 16 17 19 20 20 20 20 20 21 22 22 23 24 25 25 25 26 26 26 26 25 25 25 25 26 26 27 27 27 27 28
13 13 14 14 14 13 13 14 14 15 15 15 17 18 18 18 19 19 19 20 21 21 22 23 23 23 24 24 24 25 24 24 25 25 25 25 25 26 26 26 26 26 27
13 14 14 14 14 13 12 13 13 14 15 16 17 17 17 18 19 19 19 20 20 21 21 22 23 23 23 23 23 23 23 23 23 24 24 24 24 24 24 25 25 26 26
13 13 14 14 13 12 12 13 13 14 15 15 16 17 18 18 18 18 19 19 20 21 22 22 23 23 23 23 23 23 23 23 22 22 22 22 23 23 23 23 23 24 24
13 13 14 14 14 14 14 14 14 14 15 15 17 17 18 18 18 18 19 21 21 22 22 22 22 22 22 21 21 21 21 22 22 22 22 22 22 22 22 22 22 21 22
13 14 13 14 14 14 14 14 14 15 15 16 17 18 18 18 18 19 20 21 22 22 23 22 22 22 21 21 21 21 21 21 21 21 21 22 22 21 21 21 21 21 21
13 13 14 14 14 15 15 15 15 15 16 17 17 17 18 18 18 19 20 21 22 22 22 22 22 21 21 21 21 21 21 21 21 21 21 21 22 21 21 21 21 21 21
13 13 14 15 15 15 15 15 16 16 16 17 18 18 18 19 19 19 20 21 22 22 22 22 21 21 21 21 22 22 22 21 21 21 21 21 21 21 21 21 21 20 20
13 14 14 15 15 15 15 16 16 16 17 17 18 18 19 20 20 20 20 22 22 22 22 22 21 20 20 21 22 22 21 21 21 20 21 21 21 20 19 19 19 19 19
13 14 14 14 15 15 15 16 16 17 17 18 18 19 19 19 20 20 21 21 22 21 21 21 21 21 21 21 22 22 21 21 20 20 20 19 19 18 18 18 18 18 18
13 13 14 14 15 15 16 16 17 17 18 18 19 19 19 19 20 20 20 21 22 21 21 21 21 21 21 22 22 22 21 21 20 19 19 18 18 18 17 16 16 16 16
13 14 14 15 15 15 16 17 18 18 18 19 18 18 18 19 20 20 21 21 22 22 21 21 21 21 22 22 21 21 20 20 19 19 19 18 17 16 16 15 15 15 15
13 14 15 15 15 16 16 17 18 18 19 19 18 18 19 19 20 20 20 21 22 22 22 21 21 21 22 22 21 21 21 20 19 19 18 17 16 16 15 15 15 15 15
14 14 15 15 16 16 16 17 18 18 18 18 19 19 19 19 20 20 20 20 21 22 22 22 22 22 22 22 22 21 21 20 19 18 18 17 16 16 15 14 14 15 15
14 14 15 16 16 17 17 17 18 18 18 18 19 19 19 19 20 20 20 20 21 21 21 22 23 23 23 23 22 21 20 20 19 18 18 17 16 15 15 14 14 14 14
14 15 15 16 17 17 17 17 18 18 18 18 19 19 19 19 19 20 20 20 21 21 22 23 23 24 24 23 22 21 20 20 19 18 17 16 16 15 14 14 13 13 14
15 15 16 17 17 17 17 17 18 18 18 18 19 19 19 19 20 20 20 21 21 21 22 23 24 24 23 22 22 21 20 19 18 17 17 16 15 15 14 14 14 14 13
15 16 16 17 17 17 17 17 17 18 18 18 18 19 19 20 20 20 20 20 21 21 22 22 23 24 23 23 22 21 20 19 18 17 16 16 15 15 15 14 14 13 13
15 16 16 16 17 17 17 17 17 17 17 17 18 18 19 19 20 20 20 20 20 21 22 22 22 23 23 22 22 21 20 19 18 17 17 16 15 15 15 14 13 13 12
15 16 16 16 16 17 17 16 16 17 17 17 17 18 18 19 20 20 20 19 20 20 21 22 22 22 22 22 22 22 21 20 19 18 17 16 16 16 16 16 15 14 13
15 16 16 16 17 17 16 16 16 16 16 17 17 17 18 19 19 19 20 20 20 20 21 22 22 21 21 22 22 22 21 21 20 18 17 16 16 16 16 16 15 15 13
Wind_Direction
293 290 289 288 291 291 289 286 285 284 284 287 289 291 291 292 293 291 293 294 292 291 291 289 289 289 288 288 286 286 287 286 284 282 279 276 275 273 271 269 269 268 267
295 290 292 293 294 294 291 289 288 287 288 290 294 296 294 294 295 295 294 294 294 294 293 291 291 291 290 289 288 287 288 287 285 283 280 279 277 276 274 271 269 268 268
304 298 300 298 299 300 297 294 291 293 294 295 297 300 301 300 299 298 295 294 294 295 295 296 294 293 292 291 290 290 291 289 287 283 279 279 278 277 276 274 272 270 268
311 308 308 307 306 305 302 301 301 300 299 299 301 304 305 305 303 302 300 298 296 296 297 297 296 295 294 293 292 292 291 288 287 284 281 280 278 277 277 277 275 273 270
319 314 313 311 309 307 305 304 304 303 304 304 304 306 308 308 307 306 305 302 300 299 299 300 299 298 296 296 295 294 291 289 287 286 284 282 280 278 277 278 277 273 271
321 320 319 315 311 309 307 306 307 309 310 309 309 309 311 311 310 309 307 304 303 304 304 303 302 301 299 299 296 295 294 292 289 287 286 285 283 280 278 277 276 274 272
322 323 324 321 317 313 309 309 311 314 314 313 311 312 313 313 314 313 311 309 308 307 305 304 305 304 303 302 299 297 296 294 292 290 289 289 285 282 280 277 275 273 272
321 324 328 325 322 319 315 315 315 316 316 315 315 314 315 315 315 314 313 312 311 310 311 310 310 307 305 303 303 300 300 298 296 294 293 291 288 286 283 280 277 275 273
319 323 328 329 325 326 324 322 320 318 319 320 320 318 316 317 318 318 316 316 315 314 314 313 311 308 306 306 305 304 303 302 300 298 297 295 293 291 288 284 281 279 277
320 325 329 331 330 329 328 326 325 323 322 323 324 323 321 320 321 321 320 319 318 316 315 315 315 313 311 309 309 309 308 306 304 301 299 298 296 293 290 286 284 283 281
319 324 327 327 330 331 331 330 329 328 327 325 326 326 325 323 322 322 322 322 320 318 318 318 318 318 316 315 313 312 311 308 305 303 302 300 299 296 291 289 287 285 282
318 320 324 326 328 332 332 331 331 330 331 331 331 331 328 326 325 325 325 325 322 321 322 321 320 320 319 319 318 316 314 311 308 305 303 301 299 297 294 292 290 285 281
319 323 325 329 331 331 332 332 330 330 331 333 332 332 332 329 328 327 327 326 324 323 322 322 322 322 321 320 319 318 317 315 313 309 306 304 302 299 295 293 292 286 282
317 320 325 327 329 330 330 332 332 331 331 332 332 331 332 332 330 328 326 327 325 324 322 323 323 323 322 321 321 319 317 316 316 312 309 308 305 302 298 296 293 289 285
319 321 324 326 327 329 330 331 332 331 330 330 330 330 332 333 333 331 330 330 330 328 327 325 324 324 324 323 321 321 320 319 318 316 314 312 309 306 303 300 295 290 286
322 323 323 324 325 328 329 330 331 330 329 329 329 331 333 335 335 335 336 335 333 331 328 328 327 327 326 325 324 322 321 319 317 316 317 315 312 309 306 304 301 297 292
321 323 325 325 325 326 328 329 329 328 329 330 329 331 333 334 335 335 336 335 333 332 330 329 328 328 328 327 325 323 322 320 318 317 316 315 314 313 311 308 306 302 298
319 323 326 326 325 326 328 329 329 328 327 329 331 331 333 334 334 334 334 334 333 333 332 330 329 330 330 329 327 325 325 323 321 319 318 317 316 316 314 310 308 305 303
318 321 324 325 324 325 326 328 329 329 328 327 329 331 332 333 334 334 334 334 334 334 334 333 333 332 332 331 330 329 329 327 325 324 322 322 320 317 316 312 310 308 304
317 319 322 323 323 323 323 325 326 328 330 331 332 332 332 332 333 335 336 335 334 335 335 335 335 335 335 334 333 332 331 329 327 327 325 324 323 320 319 315 313 313 310
316 317 319 321 321 321 323 324 325 327 328 331 333 334 335 335 335 336 338 338 337 336 336 336 337 337 338 338 337 334 333 332 330 331 330 328 327 325 323 320 316 315 313
313 315 317 320 321 320 321 323 325 328 329 331 332 333 334 335 336 337 339 340 339 338 339 339 338 339 340 341 341 340 338 337 335 334 334 333 332 331 328 323 318 313 314
310 314 316 318 320 320 319 320 323 326 328 330 331 333 335 335 336 337 338 340 340 341 341 343 343 344 344 344 345 344 343 343 340 338 337 336 336 334 332 328 324 321 319
307 310 313 317 319 320 319 319 322 326 328 329 331 334 335 335 336 336 337 339 341 343 345 345 346 346 346 347 348 347 346 345 343 341 340 340 338 337 335 332 329 326 323
305 307 309 314 317 318 319 319 321 324 326 328 329 332 333 334 335 337 337 338 339 342 345 345 346 346 346 347 348 348 347 345 343 342 340 339 338 335 333 332 332 329 325
303 305 308 311 314 316 318 319 318 320 323 326 328 330 332 333 336 338 339 341 341 342 343 345 346 347 348 347 347 348 348 346 344 342 340 339 339 339 337 335 333 329 326
Height
5761 5760 5759 5758 5757 5755 5754 5752 5751 5750 5749 5747 5746 5744 5743 5741 5739 5737 5735 5733 5730 5728 5726 5724 5721 5719 5717 5714 5712 5710 5707 5705 5704 5702 5700 5699 5698 5697 5696 5696 5696 5696 5696
5758 5757 5756 5754 5753 5751 5749 5748 5746 5745 5743 5742 5740 5739 5737 5735 5733 5731 5729 5726 5723 5721 5718 5716 5714 5712 5709 5707 5705 5702 5700 5698 5696 5694 5692 5691 5689 5688 5687 5687 5686 5686 5686
5755 5754 5752 5751 5749 5747 5745 5743 5741 5740 5738 5737 5735 5733 5731 5729 5727 5725 5722 5719 5717 5714 5712 5709 5707 5704 5702 5699 5697 5694 5692 5690 5687 5686 5684 5682 5681 5680 5679 5678 5677 5677 5677
5752 5751 5749 5748 5745 5743 5741 5739 5737 5735 5733 5732 5730 5728 5726 5724 5721 5719 5716 5713 5710 5708 5705 5703 5700 5697 5694 5691 5689 5686 5684 5682 5679 5677 5676 5674 5672 5671 5670 5669 5668 5667 5667
5749 5748 5746 5744 5742 5739 5737 5735 5733 5731 5729 5728 5726 5724 5722 5719 5716 5713 5710 5707 5704 5702 5699 5696 5693 5690 5687 5684 5681 5678 5676 5673 5671 5669 5667 5666 5664 5662 5661 5660 5659 5658 5657
5747 5745 5743 5741 5739 5736 5734 5731 5729 5727 5726 5724 5722 5720 5717 5714 5711 5708 5705 5702 5699 5696 5693 5690 5686 5683 5680 5677 5674 5671 5668 5665 5663 5661 5659 5658 5656 5654 5653 5651 5650 5649 5649
5745 5743 5741 5738 5736 5733 5730 5728 5727 5724 5722 5720 5718 5715 5713 5710 5707 5704 5700 5697 5693 5690 5687 5684 5680 5676 5673 5670 5667 5664 5661 5658 5656 5653 5651 5649 5648 5646 5644 5643 5641 5640 5640
5744 5741 5739 5736 5733 5730 5728 5726 5723 5721 5719 5717 5714 5711 5709 5706 5703 5699 5696 5692 5689 5685 5681 5677 5674 5670 5667 5664 5661 5658 5654 5651 5649 5646 5644 5642 5640 5638 5636 5635 5633 5632 5632
5742 5739 5737 5734 5731 5728 5726 5723 5721 5718 5716 5713 5710 5707 5704 5701 5698 5695 5691 5688 5684 5680 5676 5672 5669 5665 5661 5658 5655 5651 5648 5645 5642 5639 5637 5634 5632 5630 5628 5627 5625 5624 5624
5739 5737 5734 5731 5728 5726 5723 5720 5718 5715 5713 5710 5707 5704 5700 5697 5694 5691 5687 5683 5680 5676 5671 5667 5663 5659 5655 5652 5648 5645 5642 5639 5636 5633 5630 5628 5626 5623 5621 5619 5618 5617 5616
5736 5734 5732 5729 5727 5724 5721 5718 5716 5713 5710 5707 5704 5700 5697 5694 5690 5687 5683 5679 5675 5670 5666 5662 5658 5654 5650 5646 5643 5639 5636 5632 5629 5627 5624 5621 5619 5616 5614 5612 5611 5609 5608
5734 5732 5730 5727 5724 5722 5719 5716 5713 5710 5707 5704 5700 5697 5693 5690 5686 5682 5679 5675 5670 5666 5661 5657 5653 5649 5645 5641 5637 5634 5630 5626 5623 5620 5617 5615 5612 5610 5607 5606 5604 5602 5601
5731 5729 5727 5725 5722 5719 5716 5714 5711 5707 5704 5701 5697 5694 5690 5686 5682 5679 5675 5671 5666 5661 5656 5652 5648 5644 5640 5636 5633 5629 5625 5621 5617 5614 5611 5608 5605 5602 5600 5598 5597 5595 5594
5729 5726 5724 5722 5720 5717 5714 5711 5708 5704 5701 5698 5694 5691 5687 5683 5679 5675 5671 5666 5661 5657 5652 5648 5644 5640 5636 5631 5627 5623 5619 5615 5612 5608 5605 5602 5599 5596 5593 5591 5590 5588 5587
5726 5724 5721 5719 5717 5714 5711 5708 5705 5702 5698 5695 5691 5688 5683 5679 5675 5671 5666 5662 5657 5652 5648 5644 5639 5635 5631 5627 5622 5618 5614 5610 5606 5603 5599 5596 5593 5590 5587 5585 5583 5581 5580
5723 5720 5718 5716 5713 5711 5708 5705 5702 5699 5695 5692 5688 5684 5680 5676 5672 5668 5663 5658 5654 5649 5644 5640 5635 5631 5626 5622 5617 5613 5609 5605 5601 5597 5594 5590 5587 5584 5582 5580 5578 5576 5574
5720 5717 5715 5712 5710 5707 5704 5701 5698 5695 5692 5688 5684 5681 5677 5673 5669 5664 5660 5655 5650 5645 5641 5636 5631 5627 5622 5617 5612 5608 5603 5599 5595 5592 5589 5585 5582 5579 5577 5574 5572 5570 5569
5716 5714 5712 5709 5707 5704 5701 5698 5695 5691 5688 5684 5681 5677 5673 5669 5665 5661 5656 5652 5646 5641 5637 5632 5627 5622 5617 5612 5607 5603 5598 5594 5590 5587 5584 5580 5577 5574 5572 5569 5567 5565 5563
5713 5711 5708 5706 5703 5700 5697 5694 5691 5688 5684 5681 5677 5673 5670 5665 5661 5657 5652 5648 5643 5638 5633 5628 5623 5618 5613 5608 5603 5598 5594 5590 5586 5582 5579 5576 5573 5570 5567 5565 5563 5561 5559
5709 5707 5705 5702 5699 5697 5694 5691 5688 5684 5681 5677 5673 5670 5666 5661 5657 5653 5648 5644 5639 5634 5629 5625 5619 5614 5609 5604 5599 5594 5590 5586 5582 5578 5575 5572 5569 5566 5563 5560 5558 5556 5554
5705 5703 5701 5698 5695 5693 5690 5687 5684 5680 5677 5673 5670 5666 5662 5658 5653 5649 5645 5640 5635 5631 5626 5621 5616 5610 5605 5599 5595 5590 5586 5581 5578 5574 5571 5568 5565 5562 5559 5556 5554 5551 5550
5701 5699 5697 5694 5691 5688 5685 5683 5680 5676 5673 5669 5666 5662 5658 5654 5650 5646 5641 5637 5632 5627 5622 5618 5612 5607 5601 5596 5591 5586 5582 5578 5574 5571 5567 5564 5561 5558 5556 5553 5550 5547 5545
5697 5694 5692 5690 5687 5684 5681 5679 5676 5673 5669 5666 5662 5659 5655 5651 5647 5642 5638 5634 5629 5624 5619 5614 5609 5604 5598 5593 5588 5584 5579 5575 5571 5568 5565 5561 5558 5555 5552 5549 5547 5544 5542
5692 5690 5688 5685 5683 5680 5678 5675 5672 5669 5666 5662 5659 5655 5651 5647 5643 5639 5635 5630 5626 5621 5616 5611 5606 5601 5596 5591 5586 5581 5577 5572 5569 5565 5562 5558 5555 5552 5549 5546 5543 5541 5539
5687 5685 5683 5681 5679 5676 5673 5671 5668 5665 5662 5659 5656 5652 5648 5644 5640 5636 5632 5628 5623 5619 5614 5609 5604 5599 5594 5589 5584 5579 5575 5570 5566 5563 5559 5556 5552 5549 5546 5543 5540 5538 5536
5682 5680 5678 5676 5674 5672 5669 5666 5664 5661 5658 5655 5652 5648 5645 5641 5637 5633 5629 5625 5620 5616 5611 5606 5601 5596 5592 5587 5582 5577 5573 5568 5564 5560 5556 5553 5549 5546 5543 5540 5537 5535 5532